Weather in Pushkino

Russia / Republic of Crimea     45°50′44″N   34°23′18″E
temp.,
°C
wind,
m/s
gust,
m/s
humid.,
%
clouds,
%
prec.,
mm/h
press.,
hPa
HPBL,
m
1 march, mon
mon100:00+4wnw3684100 0.1 1024485
03:00+2w2491100 0.2 1024148
06:00+1w349394 0.1 1024135
09:00+2nw247895 0.1 1025291
12:00+5n336278 0.1 1026947
15:00+5nne335971 0.1 1026953
18:00+4ne337071 0.0 1027373
21:00+2ese118279 0.0 102922
2 march, tue
tue200:00+3n237579 0.1 1030102
03:00+3nne357290 0.1 1031196
06:00+1n237817 0.0 103042
09:00+2wnw23708 0.0 1031214
12:00+6wnw45537 0.0 10301222
15:00+7w675236 0.0 10281084
18:00+5w7106125 0.0 1026834
21:00+3wsw7137063 0.0 1025569
3 march, wed
wed300:00+3wsw815770 0.0 1023504
03:00+4wsw8158237 0.0 1021541
06:00+3wnw5118841 0.0 1020430
09:00+4nnw7117771 0.0 1023819
12:00+6nnw785967 0.0 10241170
15:00+8nnw685033 0.0 10251155
18:00+6nnw47540 0.0 1026526
21:00+4n23680 0.0 102850
4 march, thu
thu400:00+2n12690 0.0 102822
03:00+1sw12710 0.0 102822
06:00+1sw23760 0.0 102725
09:00+3ssw46640 0.0 1026213
12:00+9sw56470 0.0 10251269
15:00+10sw67440 0.0 10231465
18:00+8wsw58510 0.0 1020734
21:00+4sw411720 0.0 1020422
5 march, fri
fri500:00+3ssw513800 0.0 1019483
03:00+3ssw513820 0.0 1018459
06:00+2ssw513860 0.0 1017395
09:00+5sw712750 0.0 1017513
12:00+11sw69560 0.0 1016711
15:00+13sw79500 0.0 10151027
18:00+10sw510580 0.0 1014625
21:00+7ssw512720 0.0 1014362